Regional Weather Roundup
Issued by NWS

Home | Current Version | Previous Version | Graphics & Text | Print | Product List | Glossary On
Versions: 1 2 3 4 5 6 7 8 9 10 11 12 13 14 15 16 17 18 19 20 21 22 23 24 25 26 27 28 29 30 31 32 33 34 35 36 37 38 39 40 41 42 43 44 45 46 47 48 49 50
000
ASUS43 KFSD 272202
RWRSD

WEATHER ROUNDUP FOR SOUTH DAKOTA
NATIONAL WEATHER SERVICE SIOUX FALLS SD
400 PM CST MON FEB 27 2017

NOTE: "FAIR" INDICATES FEW OR NO CLOUDS BELOW 12,000 FEET WITH NO
SIGNIFICANT WEATHER AND/OR OBSTRUCTIONS TO VISIBILITY.


SDZ001>005-009-010-012>017-272300-
NORTHWEST AND NORTH CENTRAL SOUTH DAKOTA

CITY           SKY/WX    TMP DP  RH WIND       PRES   REMARKS
BUFFALO          N/A     35  19  52 NE12      29.56F WCI  27
FAITH            N/A     37  20  50 N12       29.63F
MOBRIDGE       CLOUDY    40  22  48 N8        29.66R
$$

SDZ012>016-024>037-041>051-057-063-072>074-272300-
SOUTHWEST AND SOUTH CENTRAL SOUTH DAKOTA

CITY           SKY/WX    TMP DP  RH WIND       PRES   REMARKS
RAPID CTY ARPT CLOUDY    41  18  39 N15       29.57R
PIERRE         CLOUDY    46  17  31 N16       29.63S
CUSTER         CLOUDY    33  20  58 VRB3      29.52S
ELLSWORTH AFB  CLOUDY    40  14  34 N15       29.58R
PHILIP         CLOUDY    46  25  43 NE10      29.60S
PINE RIDGE     CLOUDY    37  23  56 N3        29.57F
SPEARFISH      MIX PCPN  34  21  60 N6        29.59S WCI  29
WINNER         FAIR      47  31  53 S17G23    29.66F
$$

SDZ004>011-016>023-039-040-272300-
NORTHEAST SOUTH DAKOTA

CITY           SKY/WX    TMP DP  RH WIND       PRES   REMARKS
ABERDEEN       CLOUDY    42  18  37 N6        29.71S
WATERTOWN      MOSUNNY   43  24  47 SW20      29.70F
BROOKINGS      SUNNY     46  22  38 S21       29.73S
SISSETON         N/A     40  29  64 E8        29.73F
$$

SDZ017-020-022-023-036>040-048>070-272300-
SOUTHEAST SOUTH DAKOTA

CITY           SKY/WX    TMP DP  RH WIND       PRES   REMARKS
SIOUX FALLS    MOSUNNY   44  27  51 S18G26    29.77S
HURON          CLOUDY    48  26  42 S16G22    29.68F
CHAMBERLAIN    SUNNY     50  31  47 S16       29.66F
MITCHELL       SUNNY     47  27  45 S14       29.72F
YANKTON        SUNNY     43  28  56 SE10      29.74S
$$

ABBREVIATIONS USED IN REMARKS
   TC - TEMPERATURE IN CELSIUS
  WCI - WIND CHILL INDEX
   HX - HEAT INDEX
  VSB - VISIBILITY




USA.gov is the U.S. government's official web portal to all federal, state and local government web resources and services.